Home   Weather   Washington DC   Past weeks

Flag for USA Past Weather in Washington DC, USA — Yesterday and Last 2 Weeks

Now
71 °F

Passing clouds.


Feels Like: 76 °F
Forecast: 42 / 70 °F
Wind: 10 mph from West

Location: Reagan National Airport

Current Time: Oct 23, 2018 at 5:06:23 pm

Latest Report: Oct 23, 2018 at 3:52 pm


Visibility: 10 mi

Pressure: 29.98 "Hg

Humidity: 30%

Dew Point: 38 °F

Location of Washington DCLocation

Past Weather in Washington DC — Graph

°F

Washington DC Temperature Yesterday

Maximum temperature yesterday: 57 °F (at 3:52 pm)
Minimum temperature yesterday: 39 °F (at 4:52 am)
Average temperature yesterday: 49 °F

High & Low Weather Summary for the Past Weeks

 TemperatureHumidityPressure
High83 °F (Oct 8, 3:52 pm)94% (Oct 11, 6:29 am)30.45 "Hg (Oct 11, 6:29 am)
Low39 °F (Oct 22, 4:52 am)30% (Oct 17, 1:52 pm)29.51 "Hg (Oct 11, 11:52 pm)
Average62 °F67%30.07 "Hg
* Reported Oct 8 3:52 pm — Oct 23 3:52 pm, Washington DC. Weather by CustomWeather, © 2018

Note: Actual official high and low records may vary slightly from our data, if they occured in-between our weather recording intervals... More about our weather records

Advertising

Washington DC Weather History for the Previous 24 Hours

Scroll right to see more
 ConditionsComfort  
Time TempWeatherWind HumidityBarometerVisibility
3:52 pm
Tue, Oct 23
71 °FPassing clouds.10 mph30%29.98 "Hg10 mi
2:52 pm71 °FPassing clouds.13 mph31%29.99 "Hg10 mi
1:52 pm71 °FPassing clouds.9 mph32%30.01 "Hg10 mi
12:52 pm68 °FPassing clouds.9 mph40%30.04 "Hg10 mi
11:52 am62 °FSunny.9 mph58%30.08 "Hg10 mi
10:52 am57 °FSunny.10 mph69%30.09 "Hg10 mi
9:52 am52 °FPassing clouds.9 mph80%30.11 "Hg10 mi
8:52 am49 °FPassing clouds.5 mph74%30.11 "Hg10 mi
7:52 am47 °FPassing clouds.5 mph83%30.11 "Hg10 mi
6:52 am46 °FPassing clouds.5 mph83%30.10 "Hg10 mi
5:52 am45 °FPassing clouds.5 mph86%30.11 "Hg10 mi
4:52 am46 °FPassing clouds.5 mph83%30.11 "Hg10 mi
3:52 am47 °FPassing clouds.6 mph80%30.11 "Hg10 mi
2:52 am49 °FPassing clouds.7 mph74%30.13 "Hg10 mi
1:52 am50 °FPartly cloudy.5 mph71%30.14 "Hg10 mi
12:52 am51 °FPassing clouds.7 mph71%30.15 "Hg10 mi
11:52 pm
Mon, Oct 22
51 °FMostly cloudy.7 mph71%30.16 "Hg10 mi
10:52 pm52 °FPassing clouds.9 mph66%30.16 "Hg10 mi
9:52 pm52 °FPassing clouds.9 mph64%30.17 "Hg10 mi
8:52 pm53 °FPassing clouds.10 mph59%30.17 "Hg10 mi
7:52 pm53 °FPassing clouds.8 mph56%30.18 "Hg10 mi
6:52 pm54 °FPassing clouds.9 mph53%30.17 "Hg10 mi
5:52 pm56 °FScattered clouds.10 mph46%30.18 "Hg10 mi
Weather by CustomWeather, © 2018

See weather overview